This is the latest recevied weather packets stored in our database for station/object NA9VY-8. If no packets are shown the sender has not sent any weather packets the latest 10 day(s).
| Time | Temp. | Humidity | Pressure | Rain* | Wind** | Luminosity | Snow |
|---|---|---|---|---|---|---|---|
| 1777511696 | 13.33° C | 62% | 1017.7 hPa | 0 mm | - | 0 W/m² | - |
| 1777511394 | 13.33° C | 63% | 1017.5 hPa | 0 mm | - | 0 W/m² | - |
| 1777511089 | 13.33° C | 62% | 1017.4 hPa | 0 mm | - | 0 W/m² | - |
| 1777510785 | 13.89° C | 63% | 1017.4 hPa | 0 mm | - | 0 W/m² | - |
| 1777510483 | 13.89° C | 63% | 1017.3 hPa | 0 mm | - | 0 W/m² | - |
| 1777510178 | 13.89° C | 63% | 1017.2 hPa | 0 mm | - | 0 W/m² | - |
| 1777509876 | 13.89° C | 61% | 1017.1 hPa | 0 mm | - | 0 W/m² | - |
| 1777509576 | 14.44° C | 62% | 1016.7 hPa | 0 mm | - | 0 W/m² | - |
| 1777509273 | 14.44° C | 63% | 1016.8 hPa | 0 mm | - | 0 W/m² | - |
| 1777508971 | 14.44° C | 63% | 1016.8 hPa | 0 mm | - | 0 W/m² | - |
| 1777508668 | 14.44° C | 65% | 1016.8 hPa | 0 mm | - | 4 W/m² | - |
| 1777508365 | 14.44° C | 63% | 1016.7 hPa | 0 mm | - | 6 W/m² | - |
| 1777508062 | 14.44° C | 64% | 1016.5 hPa | 0 mm | - | 10 W/m² | - |
| 1777507759 | 15° C | 63% | 1016.4 hPa | 0 mm | - | 10 W/m² | - |
| 1777507455 | 15° C | 63% | 1016.5 hPa | 0 mm | - | 15 W/m² | - |
| 1777507153 | 15° C | 61% | 1016.5 hPa | 0 mm | - | 15 W/m² | - |
| 1777506851 | 15.56° C | 61% | 1016.4 hPa | 0 mm | - | 16 W/m² | - |
| 1777506547 | 15.56° C | 59% | 1016.3 hPa | 0 mm | - | 23 W/m² | - |
| 1777506242 | 15.56° C | 59% | 1016.3 hPa | 0 mm | - | 33 W/m² | - |
| 1777505940 | 15.56° C | 61% | 1016.2 hPa | 0 mm | - | 27 W/m² | - |
| 1777505635 | 15.56° C | 64% | 1016.1 hPa | 0 mm | - | 28 W/m² | - |
| 1777505332 | 15.56° C | 61% | 1016.3 hPa | 0 mm | - | 31 W/m² | - |
| 1777505029 | 16.11° C | 62% | 1016.2 hPa | 0 mm | - | 42 W/m² | - |
| 1777504726 | 16.11° C | 62% | 1016.2 hPa | 0 mm | - | 40 W/m² | - |
| 1777504424 | 16.11° C | 60% | 1016.2 hPa | 0 mm | - | 35 W/m² | - |
* Rain latest hour (hover to see other rain measurements)
** Current wind speed in m/s (hover to see current wind gust speed)